Location: Albany
(35.0000°S, 118.0000°E)
Time: 01:57:08
(UTC-04:00)

Amateur Radio Satellites - All Passes

Search period start: 23 July 2014 01:27
Search period end: 24 July 2014 01:27
Location: Albany, 35.0000°S, 118.0000°E

Satellite Date Start Highest point End Downlink Frequencies (MHz)
Time Altitude Azimuth
PCSat 23 Jul 01:45:56 01:51:18 65° 242° (WSW) 01:56:44 145.825 MHz
Oscar 19 23 Jul 01:51:56 01:57:11 84° 256° (WSW) 02:02:21 437.125 CW, 437.150 USB
TMSAT-1 23 Jul 02:09:01 02:12:26 17° 87° (E) 02:15:48 436.925 FM
Oscar 16 23 Jul 02:19:21 02:24:17 43° 252° (WSW) 02:29:09 437.025 USB, Beacon 2401.1428
ITAMSAT 1 23 Jul 02:25:43 02:31:02 88° 256° (WSW) 02:36:17 435.822 SSB
Gurwin Techsat 1B 23 Jul 02:27:43 02:32:42 37° 82° (E) 02:37:36 435.225 FM
JAS-1B 23 Jul 02:28:34 02:34:26 45° 79° (E) 02:41:08 435.800 - 435.900 CW/SSB
AO-27 23 Jul 02:43:13 02:48:25 59° 253° (WSW) 02:53:33 436.795 MHz FM
OPAL 23 Jul 02:43:56 02:48:48 41° 111° (ESE) 02:53:45 ?
Uribyol 2 23 Jul 02:47:06 02:52:13 51° 253° (WSW) 02:57:18 436.500 FM
Sapphire 23 Jul 02:57:10 03:00:57 19° 231° (SW) 03:04:46 437.095 MHz 1200 baud AX-25 AFSK
AO-Echo 23 Jul 03:01:44 03:06:13 36° 251° (WSW) 03:10:47 ?
Uosat F 23 Jul 03:15:36 03:18:34 16° 87° (E) 03:21:31 435.120 FM
TMSAT-1 23 Jul 03:47:24 03:52:35 51° 253° (WSW) 03:57:43 436.925 FM
Gurwin Techsat 1B 23 Jul 04:08:10 04:12:24 24° 247° (WSW) 04:16:35 435.225 FM
AO-7 23 Jul 04:09:30 04:17:39 53° 78° (ENE) 04:25:43 29.400 - 29.500 MHz
JAS-1B 23 Jul 04:20:09 04:24:53 24° 247° (WSW) 04:30:04 435.800 - 435.900 CW/SSB
OPAL 23 Jul 04:23:55 04:27:47 21° 276° (W) 04:31:42 ?
Uosat F 23 Jul 04:52:40 04:57:36 51° 253° (WSW) 05:02:29 435.120 FM
KITSAT 1 23 Jul 04:53:30 04:56:05 12° 81° (E) 04:58:40 435.175 FM
STRAND 1 23 Jul 04:58:03 05:01:13 17° 115° (ESE) 05:04:25 ?
Hamsat 23 Jul 05:12:10 05:15:01 17° 87° (E) 05:17:50 145.90 MHz
PANSAT 23 Jul 05:55:48 05:56:55 11° 22° (NNE) 05:58:02 not established
AO-7 23 Jul 06:02:53 06:10:00 32° 241° (WSW) 06:17:07 29.400 - 29.500 MHz
JAS-2 23 Jul 06:21:50 06:28:42 75° 77° (ENE) 06:36:17 435.800 - 435.900 CW/SSB, 435.910 FM
STRAND 1 23 Jul 06:34:59 06:39:56 51° 280° (W) 06:44:58 ?
KITSAT 1 23 Jul 06:42:07 06:50:10 79° 65° (ENE) 06:58:17 435.175 FM
Hamsat 23 Jul 06:47:09 06:51:03 33° 252° (WSW) 06:54:52 145.90 MHz
SO-67 23 Jul 06:58:11 07:01:34 43° 81° (E) 07:04:55 435.3500 MHz FM
Lituanica SAT-1 23 Jul 07:01:24 07:03:38 65° 318° (NW) 07:05:48 437.275 MHz beacon
Oscar 10/S400 23 Jul 07:02:15 07:16:04 15° 314° (NW) 07:26:39 145.825 - 145.975 CW/USB, Beacon 145.810 USB
PANSAT 23 Jul 07:33:18 07:36:32 25° 10° (N) 07:39:47 not established
MaSat-1 23 Jul 07:36:58 07:39:14 31° 115° (ESE) 07:41:35 437.345 MHz
Saudisat 1A 23 Jul 07:42:26 07:46:09 28° 68° (ENE) 07:49:55 436.775 MHz
ISS 23 Jul 07:54:11 07:57:25 41° 142° (SE) 08:00:38 145.800 FM
JAS-2 23 Jul 08:08:39 08:13:10 19° 244° (WSW) 08:17:57 435.800 - 435.900 CW/SSB, 435.910 FM
HO-68 23 Jul 08:09:09 08:14:45 24° 85° (E) 08:20:18 435.675 MHz FM
KITSAT 1 23 Jul 08:40:14 08:46:24 23° 225° (SW) 08:52:37 435.175 FM
PANSAT 23 Jul 09:12:51 09:16:20 31° 358° (N) 09:19:48 not established
Saudisat 1A 23 Jul 09:21:59 09:25:40 26° 232° (SW) 09:29:24 436.775 MHz
Oscar 11 23 Jul 09:24:39 09:28:44 36° 82° (E) 09:32:45 145.825 FM, Beacon 2401.500 USB
FUNcube-1 23 Jul 09:29:01 09:31:46 15° 88° (E) 09:34:28 145.950 - 145.970 MHz USB
ISS 23 Jul 09:31:49 09:33:53 15° 308° (NW) 09:35:57 145.800 FM
HO-68 23 Jul 09:55:41 10:02:44 57° 250° (WSW) 10:09:44 435.675 MHz FM
Sapphire 23 Jul 10:03:44 10:08:07 24° 127° (SE) 10:12:27 437.095 MHz 1200 baud AX-25 AFSK
PCSat 23 Jul 10:37:14 10:42:31 49° 120° (ESE) 10:47:45 145.825 MHz
PANSAT 23 Jul 10:53:11 10:56:05 20° 345° (NNW) 10:58:59 not established
Oscar 11 23 Jul 11:01:44 11:04:35 17° 247° (WSW) 11:07:25 145.825 FM, Beacon 2401.500 USB
FUNcube-1 23 Jul 11:03:52 11:08:20 44° 253° (WSW) 11:12:43 145.950 - 145.970 MHz USB
Oscar 19 23 Jul 11:30:40 11:31:58 11° 118° (ESE) 11:33:17 437.125 CW, 437.150 USB
Sapphire 23 Jul 11:46:34 11:51:40 42° 290° (WNW) 11:56:44 437.095 MHz 1200 baud AX-25 AFSK
Oscar 16 23 Jul 11:55:01 11:58:52 21° 114° (ESE) 12:02:45 437.025 USB, Beacon 2401.1428
ITAMSAT 1 23 Jul 12:05:40 12:06:53 11° 119° (ESE) 12:08:05 435.822 SSB
AO-27 23 Jul 12:20:59 12:24:10 17° 116° (ESE) 12:27:22 436.795 MHz FM
PCSat 23 Jul 12:21:49 12:25:29 19° 285° (WNW) 12:29:09 145.825 MHz
Uribyol 2 23 Jul 12:24:09 12:27:41 19° 115° (ESE) 12:31:13 436.500 FM
AO-40 23 Jul 12:31:23 14:04:34 16° 73° (ENE) 15:05:15 Beacon 2401.320
AO-Echo 23 Jul 12:34:13 12:37:35 19° 113° (ESE) 12:40:57 ?
SO-50 23 Jul 12:42:44 12:47:13 38° 67° (ENE) 12:51:41 436.795 FM
Oscar 19 23 Jul 13:05:19 13:10:32 82° 283° (WNW) 13:15:50 437.125 CW, 437.150 USB
JAS-1B 23 Jul 13:11:42 13:17:27 29° 111° (ESE) 13:22:35 435.800 - 435.900 CW/SSB
RS-15 23 Jul 13:15:31 13:27:04 61° 69° (ENE) 13:39:01 29.354 - 29.394 USB, Beacon 29.352 USB
TMSAT-1 23 Jul 13:26:40 13:30:28 20° 114° (ESE) 13:34:17 436.925 FM
Oscar 16 23 Jul 13:32:59 13:37:53 41° 279° (W) 13:42:51 437.025 USB, Beacon 2401.1428
ITAMSAT 1 23 Jul 13:40:24 13:45:35 83° 283° (WNW) 13:50:52 435.822 SSB
Gurwin Techsat 1B 23 Jul 13:45:32 13:50:31 43° 109° (ESE) 13:55:34 435.225 FM
AO-27 23 Jul 13:58:07 14:03:11 54° 280° (W) 14:08:19 436.795 MHz FM
Uribyol 2 23 Jul 14:01:45 14:06:44 47° 280° (W) 14:11:47 436.500 FM
AO-Echo 23 Jul 14:11:40 14:16:05 37° 278° (W) 14:20:30 ?
SO-50 23 Jul 14:24:00 14:27:53 23° 231° (SW) 14:31:44 436.795 FM
Uosat F 23 Jul 14:26:08 14:29:10 16° 115° (ESE) 14:32:12 435.120 FM
KITSAT 1 23 Jul 14:39:54 14:46:10 23° 134° (SE) 14:52:22 435.175 FM
Oscar 10/S400 23 Jul 14:49:13 16:18:41 15° 97° (E) 17:18:43 145.825 - 145.975 CW/USB, Beacon 145.810 USB
OPAL 23 Jul 14:59:04 15:01:41 14° 86° (E) 15:04:15 ?
JAS-1B 23 Jul 15:01:23 15:07:57 39° 280° (W) 15:13:43 435.800 - 435.900 CW/SSB
AO-7 23 Jul 15:04:44 15:12:41 53° 113° (ESE) 15:20:42 29.400 - 29.500 MHz
TMSAT-1 23 Jul 15:04:57 15:10:00 45° 279° (W) 15:15:07 436.925 FM
UOSAT-12 23 Jul 15:18:04 15:22:36 80° 240° (WSW) 15:27:05 437.025 FM, 437.400 FM
Gurwin Techsat 1B 23 Jul 15:26:46 15:30:37 20° 274° (W) 15:34:31 435.225 FM
RS-15 23 Jul 15:29:00 15:40:05 41° 227° (SW) 15:51:30 29.354 - 29.394 USB, Beacon 29.352 USB
Uosat F 23 Jul 16:02:36 16:07:28 52° 280° (W) 16:12:25 435.120 FM
Saudisat 1A 23 Jul 16:13:48 16:15:11 11° 135° (SE) 16:16:33 436.775 MHz
JAS-2 23 Jul 16:33:55 16:37:17 18° 116° (ESE) 16:40:44 435.800 - 435.900 CW/SSB, 435.910 FM
KITSAT 1 23 Jul 16:34:15 16:42:24 79° 295° (WNW) 16:50:30 435.175 FM
OPAL 23 Jul 16:35:48 16:40:54 58° 251° (WSW) 16:45:51 ?
AO-7 23 Jul 16:58:40 17:05:40 30° 277° (W) 17:12:45 29.400 - 29.500 MHz
Hamsat 23 Jul 17:36:22 17:40:44 73° 281° (W) 17:45:11 145.90 MHz
Saudisat 1A 23 Jul 17:50:52 17:55:20 81° 298° (WNW) 17:59:45 436.775 MHz
RS-15 23 Jul 17:51:01 17:57:33 15° 195° (SSW) 18:04:07 29.354 - 29.394 USB, Beacon 29.352 USB
JAS-2 23 Jul 18:16:59 18:21:57 46° 279° (W) 18:27:07 435.800 - 435.900 CW/SSB, 435.910 FM
KITSAT 1 23 Jul 18:33:49 18:36:29 12° 279° (W) 18:39:10 435.175 FM
HO-68 23 Jul 18:37:22 18:40:25 13° 124° (SE) 18:43:28 435.675 MHz FM
STRAND 1 23 Jul 18:48:46 18:53:59 71° 78° (ENE) 18:59:08 ?
SO-67 23 Jul 19:00:53 19:04:12 40° 278° (W) 19:07:34 435.3500 MHz FM
RS-15 23 Jul 20:09:47 20:17:33 18° 157° (SSE) 20:25:09 29.354 - 29.394 USB, Beacon 29.352 USB
Oscar 11 23 Jul 20:17:10 20:20:23 20° 111° (ESE) 20:23:38 145.825 FM, Beacon 2401.500 USB
HO-68 23 Jul 20:19:48 20:26:56 79° 107° (ESE) 20:34:11 435.675 MHz FM
STRAND 1 23 Jul 20:30:22 20:32:30 13° 243° (WSW) 20:34:38 ?
SO-50 23 Jul 21:18:47 21:21:34 16° 133° (SE) 21:24:20 436.795 FM
MaSat-1 23 Jul 21:25:04 21:28:56 40° 69° (ENE) 21:32:16 437.345 MHz
Oscar 11 23 Jul 21:52:28 21:56:20 30° 277° (W) 22:00:16 145.825 FM, Beacon 2401.500 USB
FUNcube-1 23 Jul 21:56:34 22:00:56 82° 282° (WNW) 22:05:29 145.950 - 145.970 MHz USB
HO-68 23 Jul 22:11:17 22:15:16 16° 272° (W) 22:19:17 435.675 MHz FM
RS-15 23 Jul 22:21:57 22:33:52 54° 127° (SE) 22:45:11 29.354 - 29.394 USB, Beacon 29.352 USB
SO-50 23 Jul 22:58:01 23:02:29 55° 296° (WNW) 23:06:51 436.795 FM
Lituanica SAT-1 23 Jul 23:01:10 23:03:23 78° 47° (NE) 23:05:36 437.275 MHz beacon
MaSat-1 23 Jul 23:04:55 23:06:11 11° 240° (WSW) 23:07:24 437.345 MHz
UOSAT-12 23 Jul 23:50:59 23:55:00 33° 125° (SE) 23:59:00 437.025 FM, 437.400 FM
ISS 24 Jul 00:34:05 00:37:27 87° 43° (NE) 00:40:51 145.800 FM
RS-15 24 Jul 00:35:03 00:45:58 42° 287° (WNW) 00:56:26 29.354 - 29.394 USB, Beacon 29.352 USB
Sapphire 24 Jul 00:41:48 00:46:49 40° 70° (ENE) 00:51:53 437.095 MHz 1200 baud AX-25 AFSK
PCSat 24 Jul 01:15:20 01:20:45 90° 65° (ENE) 01:26:14 145.825 MHz
